Location: L�Ave Maria
(50.7161°N, 1.5911°E)
Time: 13:22:13
(UTC+00:00)

Cosmos 1943 Rocket - Pass Details

Date: 10 July 2020
Orbit: 811 x 845 km, 71.0° (Epoch: 07 August)

Event Time Altitude Azimuth Distance (km) Brightness Sun altitude
Rises 22:59:21 0° 329° (NNW) 3,417 6.8 -16.0°
Reaches altitude 10° 23:01:49 10° 327° (NNW) 2,477 5.8 -16.1°
Maximum altitude 23:07:29 73° 245° (WSW) 884 2.2 -16.3°
Enters shadow 23:10:41 27° 165° (SSE) 1,579 3.0 -16.4°
